Location: ???????
(38.3360°N, 23.6977°E)
Time: 22:59:51
(UTC+00:00)

CZ-2D R/B - Pass Details

Date: 17 November 2025
Orbit: 525 x 597 km, 98.0° (Epoch: 09 December)

Event Time Altitude Azimuth Distance (km) Brightness Sun altitude
Rises 16:07:23 0° 144° (SE) 2,771 6.7 -11.2°
Reaches altitude 10° 16:09:39 10° 134° (SE) 1,889 5.8 -11.6°
Maximum altitude 16:13:19 32° 71° (ENE) 1,010 4.1 -12.3°
Drops below altitude 10° 16:17:04 10° 8° (N) 1,931 5.9 -13.0°
Sets 16:19:24 0° 358° (N) 2,844 6.8 -13.5°
